[[{"header":{"parameterUnit":"m.s-1","parameterCategory":1,"la1":30.2991,"la2":30.254,"lo1":-89.0895,"lo2":-89.0444,"dy":0.0017,"dx":0.0017,"nx":28,"ny":28,"refTime":"2024-08-11T15:00:00:Z","depth":0,"parameterNumber":2,"parameterNumberName":"U-component_of_WINDS"},"data":[0,0,0,0,0,0,0,0,0,0,0,0,0,0,0,0,0,0,0,0,0,0,0,0,0,0,0,0,0,0,0,0,0,0,0,0,0,0,0,0,0,0,0,0,0,0,0,0,0,0,0,0,0,0,0,0,0,0,2.7981,2.7982,0,2.8085,2.8086,2.8087,2.8034,2.8031,2.8028,2.8026,2.8136,2.8141,2.8146,0,0,0,0,0,0,0,0,0,0,0,0,0,2.7738,2.7743,2.7981,2.7982,2.7983,2.8085,2.8086,2.8087,2.8034,2.8031,2.8027,2.8024,2.8134,2.814,2.8147,0,0,0,0,0,0,0,0,0,0,0,0,0,2.7843,2.7745,2.7981,2.7969,2.7969,2.8084,2.8086,2.8088,2.8035,2.8031,2.8027,2.8023,2.8132,2.814,2.8148,2.8282,0,0,2.8173,2.8177,0,0,0,0,0,0,0,0,2.7837,2.7852,2.7969,2.797,2.797,2.8042,2.8041,2.8153,2.8036,2.801,2.8026,2.8021,2.8108,2.8118,2.8147,2.8287,2.8292,2.8174,2.8179,2.8182,2.8185,0,0,0,0,0,0,0,2.783,2.7847,2.8022,2.7971,2.7972,2.7959,2.7969,2.8062,2.8081,2.8012,2.8008,2.8021,2.8108,2.8139,2.8149,2.8293,2.8174,2.8181,2.8186,2.8189,2.8546,2.855,0,0,0,0,0,0,2.7823,2.7842,2.8019,2.8025,2.7892,2.7967,2.7978,2.8023,2.808,2.8085,2.8025,2.8018,2.8127,2.8139,2.8153,2.8311,2.8182,2.819,2.8195,2.8541,2.8547,2.8552,0,0,0,0,0,0,2.7818,2.7839,2.8015,2.7932,2.7954,2.7975,2.8026,2.8027,2.8059,2.8089,2.8093,2.8053,2.8124,2.8141,2.8249,2.8314,2.8194,2.8201,2.8536,2.8543,2.8549,2.8631,0,0,0,0,0,0,2.7811,2.7838,2.7889,2.7934,2.7958,2.8109,2.803,2.8032,2.8073,2.8065,2.8117,2.8122,2.8122,2.8237,2.8257,2.8324,2.8208,2.853,2.8539,2.8547,2.8622,2.8639,2.8654,0,0,0,0,0,2.7803,2.7909,2.7892,2.7913,2.8022,2.8113,2.8127,2.8124,2.8078,2.8129,2.8149,2.812,2.8304,2.8249,2.8271,2.8341,2.8526,2.8537,2.8547,2.8615,2.8636,2.8654,0,0,0,0,0,0,2.7873,2.7915,2.7896,2.802,2.8063,2.8104,2.8169,2.8147,2.8205,2.8196,2.8192,2.8204,2.8316,2.8339,2.8277,2.8472,2.8408,2.8423,2.8453,2.8473,2.8488,2.848,2.8215,0,0,0,0,0,2.7902,2.7972,2.8005,2.8111,2.8133,2.8147,2.8187,2.8181,2.8226,2.8244,2.8272,2.8318,2.8385,2.843,2.8495,2.8625,2.8635,2.8684,2.87,2.8713,2.8726,2.8795,2.8817,2.8585,2.8585,2.8585,0,0,2.7965,2.7996,2.804,2.8126,2.8158,2.823,2.8163,2.8243,2.8296,2.8257,2.836,2.8382,2.8432,2.8552,2.8606,2.8575,2.8792,2.8726,2.8736,2.8742,2.8808,2.883,2.8849,2.8592,2.8591,2.859,0,0,2.8114,2.8146,2.8236,2.827,2.8319,2.8327,2.8349,2.8393,2.8405,2.8508,2.8479,2.8543,2.8661,2.8697,2.8732,2.8893,2.8868,2.8914,2.8997,2.9064,2.9083,2.9099,2.9155,2.9175,2.8927,2.8927,2.8927,0,2.8186,2.8292,2.8286,2.8367,2.8405,2.837,2.8461,2.8495,2.8564,2.8591,2.8555,2.87,2.8732,2.8858,2.8897,2.8927,2.8951,2.8908,2.908,2.9096,2.9111,2.9165,2.9186,2.8932,2.8932,2.8931,2.8931,0,2.8377,2.8451,2.8518,2.8583,2.8629,2.8715,2.8721,2.8768,2.8758,2.877,2.8875,2.8911,2.8981,2.9011,2.9003,2.9136,2.9115,2.908,2.9015,2.9139,2.9189,2.9209,2.894,2.8938,2.8936,2.8935,0,0,2.8575,2.8633,2.8658,2.8686,2.8737,2.8795,2.8879,2.8946,2.8985,2.9034,2.9104,2.9203,2.917,2.9208,2.9204,2.9263,2.9386,2.922,2.9221,2.9249,2.9534,2.9559,2.9583,2.937,2.9374,2.9377,2.9529,0,2.8727,2.8872,2.8868,2.9004,2.9071,2.9039,2.9112,2.9151,2.9164,2.9224,2.9239,2.9309,2.9261,2.9283,2.934,2.9359,2.9443,2.9348,2.9435,2.9438,2.9422,2.9609,2.9637,2.9779,2.9549,2.9552,2.9554,0,2.8924,2.8977,2.9119,2.9157,2.9186,2.9251,2.9311,2.9369,2.9413,2.9418,2.946,2.9445,2.953,2.9463,2.958,2.9516,2.9551,2.9565,2.9571,2.9578,2.9503,2.9621,2.9824,2.9845,2.9585,2.9583,2.9581,0,2.9052,2.9159,2.9257,2.9282,2.933,2.9377,2.94,2.9439,2.9479,2.9531,2.9557,2.962,2.9654,2.9703,2.9705,2.9657,2.9823,2.9757,2.983,2.983,2.9866,2.9864,3.0076,2.989,2.989,2.989,2.9889,0,2.9222,2.931,2.9314,2.9375,2.9472,2.9466,2.9562,2.958,2.9615,2.9679,2.9655,2.9715,2.9715,2.9776,2.9779,2.9875,2.9891,2.9897,2.9897,2.9899,2.9898,2.9922,2.9912,2.9895,2.9894,2.9893,2.9892,0,2.9382,2.9389,2.9493,2.9529,2.954,2.961,2.9641,2.9699,2.9709,2.9789,2.9808,2.9824,2.9895,2.9902,2.9985,2.9987,3.0102,3.0091,3.0086,3.0084,3.0156,3.0149,3.0391,3.0422,3.0217,3.0219,3.022,0,2.949,2.9556,2.9599,2.9638,2.9663,2.9728,2.9767,2.9764,2.9806,2.9859,2.991,2.9978,3.0032,3.0147,3.0167,3.023,3.022,3.03,3.0229,3.0229,3.022,3.0215,3.0221,3.0314,3.0316,3.0318,3.032,0,2.968,2.9679,2.9736,2.9794,2.9842,2.9888,2.9931,2.9965,2.9967,3.0015,3.0086,3.0128,3.0211,3.0279,3.034,3.0364,3.0342,3.0342,3.0362,3.0364,3.0358,3.0361,3.0123,3.0336,3.0335,3.0333,3.0332,3.0332,2.9816,2.9873,2.991,2.9975,3.0006,3.0046,3.0101,3.0117,3.0175,3.0241,3.0236,3.0314,3.0355,3.0434,3.0462,3.0524,3.0497,3.0526,3.0534,3.0541,3.0547,3.0348,3.0535,3.0535,3.0534,3.0534,3.0534,0,3.0004,3.0026,3.0084,3.0144,3.0194,3.0168,3.0213,3.0257,3.0326,3.0365,3.0417,3.0498,3.0563,3.0587,3.065,3.0695,3.0686,3.0711,3.0708,3.0713,3.0568,3.0544,3.0717,3.0717,3.0717,3.0717,3.0717,3.0717,3.0107,3.02,3.0204,3.0312,3.0334,3.0409,3.0437,3.0474,3.0504,3.0595,3.0648,3.0662,3.0695,3.076,3.0818,3.0824,3.0848,3.0877,3.0878,3.0742,3.0724,3.0706,3.0683,3.0883,3.0883,3.1018,3.1019,3.102]},{"header":{"parameterUnit":"m.s-1","parameterCategory":1,"la1":30.2991,"la2":30.254,"lo1":-89.0895,"lo2":-89.0444,"dy":0.0017,"dx":0.0017,"nx":28,"ny":28,"refTime":"2024-08-11T15:00:00:Z","depth":0,"parameterNumber":3,"parameterNumberName":"V-component_of_WINDS"},"data":[0,0,0,0,0,0,0,0,0,0,0,0,0,0,0,0,0,0,0,0,0,0,0,0,0,0,0,0,0,0,0,0,0,0,0,0,0,0,0,0,0,0,0,0,0,0,0,0,0,0,0,0,0,0,0,0,0,0,3.2346,3.2346,0,3.2331,3.2331,3.2331,3.2261,3.2259,3.2258,3.2256,3.2241,3.2242,3.2244,0,0,0,0,0,0,0,0,0,0,0,0,0,3.2315,3.2316,3.2346,3.2346,3.2346,3.2331,3.2331,3.2331,3.2261,3.2259,3.2257,3.2255,3.2241,3.2242,3.2244,0,0,0,0,0,0,0,0,0,0,0,0,0,3.2317,3.2316,3.2346,3.2309,3.2306,3.2331,3.2331,3.2331,3.2262,3.2259,3.2257,3.2254,3.2241,3.2242,3.2244,3.2304,0,0,3.2249,3.225,0,0,0,0,0,0,0,0,3.2317,3.2318,3.2315,3.2312,3.2308,3.2295,3.2315,3.2322,3.2262,3.2278,3.2256,3.2253,3.2261,3.2261,3.2264,3.2304,3.2303,3.2249,3.225,3.2251,3.2252,0,0,0,0,0,0,0,3.2317,3.2319,3.234,3.2315,3.2311,3.2294,3.2291,3.2316,3.2284,3.2277,3.2272,3.2271,3.2259,3.2262,3.2263,3.2303,3.2249,3.2251,3.2252,3.2253,3.239,3.2393,0,0,0,0,0,0,3.2322,3.2319,3.2341,3.234,3.2307,3.2296,3.2293,3.2302,3.2284,3.2278,3.2273,3.2268,3.2261,3.2261,3.2262,3.2331,3.2251,3.2253,3.2254,3.2388,3.2391,3.2394,0,0,0,0,0,0,3.2322,3.2325,3.2341,3.2328,3.2329,3.2299,3.231,3.2303,3.2306,3.2281,3.2275,3.2282,3.2259,3.226,3.2294,3.2329,3.2254,3.2255,3.2385,3.2389,3.2392,3.2469,0,0,0,0,0,0,3.2321,3.2325,3.2348,3.2329,3.233,3.2374,3.2312,3.2305,3.2309,3.2302,3.2288,3.2283,3.2257,3.2292,3.2296,3.233,3.2256,3.2381,3.2386,3.2391,3.2463,3.2475,3.2485,0,0,0,0,0,3.232,3.237,3.2349,3.2352,3.2357,3.2376,3.2376,3.2345,3.2312,3.2335,3.2318,3.2283,3.2325,3.2296,3.23,3.2335,3.2379,3.2385,3.2391,3.2458,3.2473,3.2485,0,0,0,0,0,0,3.2394,3.2367,3.2343,3.2389,3.2385,3.2364,3.2391,3.2362,3.2367,3.236,3.2322,3.2319,3.2359,3.2351,3.2319,3.2392,3.2346,3.2353,3.2396,3.241,3.242,3.2421,3.2258,0,0,0,0,0,3.2415,3.2432,3.2408,3.245,3.245,3.2421,3.2428,3.2404,3.2399,3.2397,3.2383,3.2379,3.2391,3.24,3.241,3.2462,3.2457,3.2488,3.2499,3.2509,3.2515,3.2541,3.2554,3.2413,3.2413,3.2413,0,0,3.246,3.2447,3.246,3.2465,3.2459,3.2477,3.242,3.2442,3.2455,3.24,3.2431,3.2421,3.2415,3.2458,3.2476,3.2452,3.2553,3.2516,3.2524,3.2525,3.2548,3.2562,3.2574,3.2417,3.2416,3.2416,0,0,3.255,3.2542,3.2576,3.2572,3.2564,3.2544,3.2553,3.2536,3.2527,3.2558,3.2516,3.2532,3.2554,3.2551,3.2552,3.2641,3.2609,3.2646,3.2703,3.2729,3.274,3.2749,3.278,3.2792,3.2652,3.2652,3.2652,0,3.2606,3.2632,3.2598,3.2622,3.2625,3.2576,3.261,3.2607,3.2603,3.2607,3.258,3.2606,3.2598,3.264,3.2661,3.2664,3.2672,3.2646,3.2741,3.275,3.2759,3.2788,3.28,3.2657,3.2656,3.2656,3.2655,0,3.2701,3.2719,3.2748,3.2744,3.2751,3.278,3.2751,3.2761,3.2737,3.2721,3.2752,3.2741,3.2748,3.2756,3.2733,3.2794,3.2779,3.2748,3.27,3.2777,3.2804,3.2815,3.2663,3.2661,3.266,3.2659,0,0,3.2836,3.2813,3.2824,3.2822,3.281,3.2823,3.2851,3.2856,3.2866,3.2865,3.2886,3.2906,3.2877,3.2878,3.2855,3.2878,3.2948,3.2843,3.2842,3.2862,3.3014,3.3037,3.305,3.2927,3.2929,3.2931,3.3014,0,3.2921,3.2965,3.2935,3.2985,3.3001,3.2955,3.2979,3.2974,3.2959,3.2971,3.2955,3.297,3.293,3.293,3.2951,3.2935,3.2978,3.2929,3.2946,3.2947,3.2948,3.3064,3.3089,3.3168,3.3024,3.3026,3.3027,0,3.3026,3.3029,3.308,3.3064,3.307,3.3091,3.3094,3.3106,3.31,3.3088,3.309,3.306,3.3085,3.304,3.3074,3.3041,3.3047,3.304,3.3043,3.3042,3.2991,3.3066,3.3193,3.3204,3.3043,3.3042,3.3041,0,3.3118,3.3135,3.3167,3.3167,3.3149,3.3166,3.3159,3.315,3.3156,3.3158,3.3161,3.3168,3.3171,3.3176,3.3149,3.3118,3.3187,3.3139,3.3177,3.3178,3.3193,3.3192,3.3321,3.3199,3.3199,3.3198,3.3198,0,3.3216,3.3248,3.3208,3.3228,3.3263,3.3229,3.3265,3.3254,3.3246,3.3263,3.3224,3.3241,3.3205,3.3218,3.3197,3.3228,3.3231,3.3221,3.3215,3.3224,3.3225,3.3226,3.322,3.3201,3.3201,3.32,3.32,0,3.3324,3.3299,3.3331,3.3311,3.3307,3.3334,3.3317,3.3335,3.3318,3.334,3.3343,3.3317,3.333,3.3304,3.3314,3.33,3.3344,3.333,3.3346,3.3341,3.3381,3.3377,3.3514,3.353,3.3399,3.34,3.3401,0,3.3387,3.3411,3.3394,3.3402,3.3398,3.3412,3.3417,3.3385,3.3391,3.3386,3.3404,3.3415,3.3421,3.3444,3.3426,3.3434,3.3419,3.3467,3.342,3.3428,3.3418,3.3417,3.3419,3.3476,3.3477,3.3479,3.348,0,3.3502,3.3488,3.3496,3.3501,3.3508,3.351,3.351,3.3519,3.3484,3.3494,3.3507,3.3512,3.3522,3.3533,3.3536,3.3529,3.3499,3.3495,3.3504,3.3513,3.3521,3.3516,3.3371,3.3492,3.349,3.3489,3.3489,3.3488,3.3588,3.3607,3.3598,3.3609,3.3605,3.3605,3.3621,3.3606,3.3616,3.3621,3.3601,3.3619,3.3612,3.3613,3.361,3.3623,3.3602,3.3615,3.3619,3.3622,3.3628,3.352,3.3624,3.3624,3.3623,3.3623,3.3623,0,3.37,3.3692,3.3702,3.3702,3.3711,3.3681,3.3679,3.3688,3.3704,3.37,3.3707,3.3722,3.3732,3.3715,3.3722,3.3736,3.3722,3.3739,3.3737,3.3736,3.3647,3.3638,3.375,3.375,3.375,3.375,3.375,3.375,3.3759,3.3788,3.3774,3.3802,3.3793,3.381,3.3811,3.3811,3.3807,3.3826,3.3834,3.3822,3.3813,3.3819,3.3827,3.3822,3.3826,3.3848,3.3838,3.3755,3.3742,3.373,3.3721,3.3849,3.3849,3.3925,3.3926,3.3926]}]]